This is the latest recevied weather packets stored in our database for station/object SP5MRF. If no packets are shown the sender has not sent any weather packets the latest 10 day(s).
| Time | Temp. | Humidity | Pressure | Rain* | Wind** | Luminosity | Snow |
|---|---|---|---|---|---|---|---|
| 1788449328 | 22.22° C | 56% | 1010.9 hPa | 0 mm | - | - | - |
| 1788448369 | 22.22° C | 56% | 1011.2 hPa | 0 mm | - | - | - |
| 1788447888 | 22.22° C | 56% | 1011.3 hPa | 0 mm | - | - | - |
| 1788447408 | 22.22° C | 56% | 1011.4 hPa | 0 mm | - | - | - |
| 1788446928 | 22.22° C | 55% | 1011.5 hPa | 0 mm | - | - | - |
| 1788446449 | 22.22° C | 55% | 1011.5 hPa | 0 mm | - | - | - |
| 1788445968 | 22.22° C | 55% | 1011.6 hPa | 0 mm | - | - | - |
| 1788445488 | 22.22° C | 55% | 1011.6 hPa | 0 mm | - | - | - |
| 1788445008 | 22.78° C | 54% | 1011.7 hPa | 0 mm | - | - | - |
| 1788444528 | 22.78° C | 53% | 1011.7 hPa | 0 mm | - | - | - |
| 1788444048 | 22.78° C | 52% | 1011.8 hPa | 0 mm | - | - | - |
| 1788443568 | 23.33° C | 52% | 1011.8 hPa | 0 mm | - | - | - |
| 1788443088 | 23.33° C | 51% | 1011.7 hPa | 0 mm | - | - | - |
| 1788442608 | 23.33° C | 53% | 1011.6 hPa | 0 mm | - | - | - |
| 1788442128 | 23.33° C | 52% | 1011.7 hPa | 0 mm | - | - | - |
| 1788441648 | 23.89° C | 51% | 1011.9 hPa | 0 mm | - | - | - |
| 1788441169 | 24.44° C | 49% | 1012 hPa | 0 mm | - | - | - |
| 1788440688 | 25° C | 49% | 1012.1 hPa | 0 mm | - | - | - |
| 1788440208 | 24.44° C | 51% | 1012.3 hPa | 0 mm | - | - | - |
| 1788439728 | 24.44° C | 49% | 1012.3 hPa | 0 mm | - | - | - |
| 1788439248 | 25° C | 49% | 1012.5 hPa | 0 mm | - | - | - |
| 1788438768 | 25° C | 49% | 1012.4 hPa | 0 mm | - | - | - |
| 1788438289 | 24.44° C | 50% | 1012.6 hPa | 0 mm | - | - | - |
| 1788437808 | 24.44° C | 50% | 1012.6 hPa | 0 mm | - | - | - |
| 1788437328 | 24.44° C | 51% | 1012.8 hPa | 0 mm | - | - | - |
* Rain latest hour (hover to see other rain measurements)
** Current wind speed in m/s (hover to see current wind gust speed)